Content
SEND FEEDBACK

Daily
Averages
Monthly
Summary
Canada

MONTREAL, QUEBEC


Home > North America > Canada > Quebec
Elevation: 118 feet     Latitude: 45 28N     Longitude: 073 45W

WEATHER
 
SELECT A DAY
Number of Records: 198,548;   Date Range: 1/1/95 - 8/27/14
 
SHARE

PRINT THIS DATA

[ ← Previous Day ]
WEATHER ALMANAC - SEPTEMBER 13, 2013
[ Next Day → ]
[ °C ]   °F
Weather ElementAverageHighLow
Temperature57.5 °F64.4 °F (1:00 am)53.6 °F (6:00 pm)
Dewpoint52.1 °F62.6 °F (1:00 am)48.2 °F (10:00 am)
Humidity82.1 %100 % (6:00 pm)67 % (11:00 am)
Barometer29.78 in29.90 in (10:00 pm)29.64 in (1:00 am)
Wind Speed9.3 mph15 mph (7:55 am)
Wind Gust20.7 mph (8:00 am)
Weather ElementAverage
Visibility14.7 mi
Wind DirectionNW (318.6 °)

Weather ElementTotal
Precipitation---
Heating Degree Days6 (Base 65)
Growing Degree Days9 (Base 50)
Averaged from 35 records on September 13, 2013
WEATHER CONDITIONS BREAKOUT
WIND DIRECTION BREAKOUT
WEATHER BY HOUR - SEPTEMBER 13, 2013
[ °C ]   °F
Local TimeTemperatureDewpointHumidityBarometerVisibilityWind DirectionWind SpeedGust SpeedPrecipitationEventsConditions
1:00 AM64.4 °F62.6 °F94 %29.64 in15.0 miWest (280°)5.8 mphMostly Cloudy
2:00 AM64.0 °F61.0 °F86 %29.65 in15.0 miNW (320°)8.1 mphPartly Cloudy
2:00 AM64.4 °F60.8 °F88 %29.65 in15.0 miNNW (330°)6.9 mphMostly Cloudy
3:00 AM62.6 °F57.2 °F82 %29.66 in15.0 miNW (320°)6.9 mphMostly Cloudy
4:00 AM62.6 °F57.2 °F82 %29.67 in15.0 miNW (320°)9.2 mphMostly Cloudy
5:00 AM60.8 °F57.2 °F88 %29.68 in15.0 miNW (310°)9.2 mphOvercast
5:11 AM60.8 °F53.6 °F77 %29.69 in15.0 miNorth (350°)12.7 mphOvercast
6:00 AM59.0 °F53.6 °F82 %29.70 in15.0 miNNW (330°)10.4 mphMostly Cloudy
7:00 AM59.0 °F50.0 °F72 %29.73 in15.0 miNNW (340°)12.7 mphOvercast
7:32 AM57.2 °F50.0 °F77 %29.75 in15.0 miNNW (340°)10.4 mphRainLight Rain Showers
7:55 AM57.2 °F50.0 °F77 %29.75 in15.0 miNNW (340°)15.0 mphOvercast
8:00 AM58.0 °F50.0 °F68 %29.75 in15.0 miNNW (330°)13.8 mphRainLight Rain Showers
8:00 AM57.2 °F50.0 °F77 %29.75 in15.0 miNNW (340°)11.5 mph20.7 mphOvercast
8:13 AM57.2 °F50.0 °F77 %29.76 in15.0 miNorth (350°)11.5 mphRainLight Rain Showers
8:44 AM57.2 °F50.0 °F77 %29.76 in15.0 miNNW (340°)10.4 mphOvercast
9:00 AM57.2 °F50.0 °F77 %29.77 in15.0 miNNW (330°)9.2 mph17.3 mphOvercast
10:00 AM57.2 °F48.2 °F72 %29.78 in15.0 miNorth (350°)10.4 mphOvercast
11:00 AM59.0 °F48.2 °F67 %29.78 in15.0 miNNW (340°)13.8 mphOvercast
12:00 PM59.0 °F48.2 °F67 %29.79 in15.0 miNNW (330°)8.1 mphOvercast
1:00 PM57.2 °F48.2 °F72 %29.79 in15.0 miNW (320°)11.5 mphOvercast
1:57 PM55.4 °F50.0 °F82 %29.80 in12.0 miNNW (340°)6.9 mphRainLight Rain Showers
2:00 PM56.0 °F50.0 °F74 %29.80 in12.0 miNNW (340°)8.1 mphRainLight Rain Showers
2:00 PM57.2 °F50.0 °F77 %29.80 in12.0 miNW (320°)4.6 mphRainLight Rain Showers
3:00 PM57.2 °F50.0 °F77 %29.80 in15.0 miWNW (290°)8.1 mphOvercast
4:00 PM55.4 °F51.8 °F88 %29.80 in15.0 miWNW (290°)11.5 mphRainLight Rain Showers
5:00 PM55.4 °F53.6 °F94 %29.82 in15.0 miWest (260°)10.4 mphRainLight Rain Showers
6:00 PM53.6 °F53.6 °F100 %29.83 in12.0 miWest (260°)10.4 mphRainLight Rain Showers
6:46 PM53.6 °F53.6 °F100 %29.84 in15.0 miWest (280°)6.9 mphOvercast
7:00 PM53.6 °F51.8 °F94 %29.84 in15.0 miWNW (290°)9.2 mphOvercast
8:00 PM55.4 °F51.8 °F88 %29.87 in15.0 miNW (320°)6.9 mphOvercast
8:26 PM55.4 °F51.8 °F88 %29.87 in15.0 miNW (320°)6.9 mphRainLight Rain Showers
8:51 PM53.6 °F50.0 °F88 %29.89 in15.0 miNNW (330°)6.9 mphOvercast
9:00 PM53.6 °F50.0 °F88 %29.89 in15.0 miNNW (340°)8.1 mphOvercast
10:00 PM53.6 °F50.0 °F88 %29.90 in15.0 miWNW (290°)5.8 mphOvercast
11:00 PM53.6 °F50.0 °F88 %29.90 in15.0 miWest (270°)5.8 mphOvercast
Hourly data recorded from CYUL, located miles away from Montreal, Quebec







STORIES FROM OUR PARTNERS